Temp
-13 -13 -13 -13 -13 -13 -13 -13 -14 -14 -14 -14 -14 -14 -14 -14 -14 -15 -15 -15 -15 -16 -16 -16 -16 -16 -16 -16 -17 -17 -17 -17 -17 -17 -18 -18 -18 -18 -18 -18 -18 -18
-13 -13 -13 -13 -13 -13 -13 -14 -14 -14 -14 -14 -14 -14 -14 -14 -15 -15 -15 -15 -16 -16 -16 -16 -16 -16 -16 -16 -17 -17 -17 -17 -17 -17 -17 -18 -18 -18 -18 -18 -18 -18
-13 -13 -13 -14 -14 -14 -14 -14 -14 -14 -14 -14 -14 -14 -14 -14 -15 -15 -15 -15 -16 -16 -16 -16 -16 -16 -16 -16 -17 -17 -17 -17 -17 -17 -17 -17 -18 -18 -18 -18 -17 -17
-13 -13 -13 -14 -14 -14 -14 -14 -14 -14 -14 -14 -14 -14 -14 -15 -15 -15 -15 -15 -16 -16 -16 -16 -16 -16 -16 -16 -17 -17 -17 -17 -17 -17 -17 -17 -18 -18 -18 -18 -17 -17
-13 -13 -14 -14 -14 -14 -14 -14 -14 -14 -14 -14 -14 -14 -14 -15 -15 -15 -15 -15 -16 -16 -16 -16 -17 -16 -16 -16 -17 -17 -17 -17 -17 -17 -17 -17 -17 -18 -18 -18 -18 -17
-13 -13 -14 -14 -14 -14 -14 -14 -14 -14 -14 -14 -14 -14 -14 -15 -15 -15 -15 -15 -16 -16 -16 -16 -17 -17 -17 -17 -17 -17 -17 -17 -17 -17 -17 -17 -17 -18 -18 -18 -18 -18
-13 -14 -14 -14 -14 -14 -14 -14 -14 -14 -14 -14 -14 -15 -15 -15 -15 -15 -15 -15 -16 -16 -16 -16 -17 -17 -17 -17 -17 -17 -17 -17 -17 -17 -17 -17 -17 -18 -18 -18 -18 -18
-14 -14 -14 -14 -14 -14 -14 -14 -14 -14 -14 -14 -14 -15 -15 -15 -15 -15 -15 -15 -16 -16 -16 -16 -17 -17 -17 -17 -17 -17 -17 -17 -17 -17 -17 -17 -17 -17 -18 -18 -18 -18
-14 -14 -14 -14 -14 -14 -14 -14 -14 -14 -14 -14 -15 -15 -15 -15 -15 -15 -15 -15 -16 -16 -16 -16 -17 -17 -17 -17 -17 -17 -17 -17 -17 -17 -17 -17 -17 -17 -17 -18 -18 -18
-14 -14 -14 -14 -14 -14 -14 -14 -14 -14 -14 -14 -15 -15 -15 -15 -15 -15 -15 -15 -16 -16 -16 -17 -17 -17 -17 -17 -17 -17 -17 -17 -17 -17 -17 -17 -17 -17 -17 -17 -18 -18
-14 -14 -14 -14 -14 -14 -14 -14 -14 -14 -14 -14 -15 -15 -15 -15 -15 -15 -15 -15 -16 -16 -16 -17 -17 -17 -17 -17 -17 -17 -17 -17 -17 -17 -17 -17 -17 -17 -17 -17 -17 -18
-14 -14 -14 -14 -14 -14 -14 -14 -14 -14 -14 -14 -15 -15 -15 -15 -15 -15 -15 -15 -16 -16 -16 -17 -17 -17 -17 -17 -17 -17 -17 -17 -17 -17 -17 -17 -17 -17 -17 -17 -17 -17
-14 -14 -14 -14 -14 -14 -14 -14 -14 -14 -14 -14 -15 -15 -15 -15 -15 -15 -15 -15 -16 -16 -16 -16 -17 -17 -17 -17 -17 -17 -17 -17 -17 -17 -17 -17 -17 -17 -17 -17 -18 -18
-14 -14 -14 -14 -14 -14 -14 -14 -14 -14 -14 -14 -15 -15 -15 -15 -15 -15 -15 -15 -16 -16 -16 -16 -17 -17 -17 -17 -17 -17 -17 -17 -17 -17 -17 -17 -17 -17 -17 -17 -18 -18
-14 -14 -14 -14 -14 -14 -14 -14 -14 -14 -14 -14 -15 -15 -15 -15 -15 -15 -15 -16 -16 -16 -16 -16 -16 -17 -17 -17 -17 -17 -17 -17 -17 -17 -17 -17 -17 -17 -17 -17 -17 -18
-14 -14 -14 -14 -14 -14 -14 -14 -14 -14 -14 -14 -15 -15 -15 -15 -15 -15 -16 -16 -16 -16 -16 -16 -16 -17 -17 -17 -17 -17 -17 -17 -17 -17 -17 -17 -17 -17 -17 -17 -17 -17
-14 -14 -14 -14 -14 -14 -14 -14 -14 -14 -14 -14 -15 -15 -15 -15 -15 -15 -16 -16 -16 -16 -16 -16 -16 -17 -17 -17 -17 -17 -17 -17 -17 -17 -17 -17 -17 -17 -17 -17 -17 -17
-14 -14 -14 -14 -14 -14 -14 -14 -14 -14 -14 -14 -15 -15 -15 -15 -15 -16 -16 -16 -16 -16 -16 -16 -16 -17 -17 -17 -17 -17 -17 -17 -17 -17 -17 -17 -17 -17 -17 -17 -17 -17
-14 -14 -14 -14 -14 -14 -14 -14 -14 -14 -14 -14 -15 -15 -15 -15 -15 -15 -16 -16 -16 -16 -16 -16 -16 -17 -17 -17 -17 -17 -17 -17 -17 -17 -17 -17 -17 -17 -17 -17 -17 -17
-14 -14 -14 -14 -14 -14 -14 -14 -14 -14 -14 -14 -15 -15 -15 -15 -15 -15 -16 -16 -16 -16 -16 -16 -16 -17 -17 -17 -17 -17 -17 -17 -17 -17 -17 -17 -17 -17 -17 -17 -18 -18
-14 -14 -14 -14 -14 -14 -14 -14 -14 -14 -14 -14 -14 -15 -15 -15 -15 -15 -15 -16 -16 -16 -16 -16 -16 -16 -17 -17 -17 -17 -17 -17 -17 -17 -17 -17 -17 -17 -17 -17 -18 -18
-14 -14 -14 -14 -14 -14 -14 -14 -14 -14 -14 -14 -14 -15 -15 -15 -15 -15 -15 -16 -16 -16 -16 -16 -16 -17 -17 -17 -17 -17 -17 -17 -17 -17 -17 -17 -17 -17 -17 -17 -18 -18
-14 -14 -14 -14 -14 -14 -14 -14 -14 -14 -14 -15 -15 -15 -15 -15 -15 -15 -15 -16 -16 -16 -16 -17 -17 -17 -17 -17 -17 -17 -17 -17 -17 -17 -17 -17 -17 -17 -17 -17 -18 -18
-14 -14 -14 -14 -14 -14 -14 -14 -14 -14 -14 -15 -15 -15 -15 -15 -15 -15 -15 -16 -16 -16 -16 -17 -17 -17 -17 -17 -17 -17 -17 -17 -17 -17 -17 -17 -18 -17 -17 -18 -18 -18
-14 -14 -14 -14 -14 -14 -14 -14 -14 -14 -15 -15 -15 -15 -15 -15 -15 -15 -15 -16 -16 -16 -16 -17 -17 -17 -17 -17 -17 -17 -17 -17 -17 -17 -17 -17 -18 -18 -18 -18 -18 -18
-14 -14 -14 -14 -14 -14 -14 -14 -14 -14 -15 -15 -15 -15 -15 -15 -15 -15 -16 -16 -16 -16 -16 -17 -17 -17 -17 -17 -17 -17 -17 -17 -17 -17 -17 -18 -18 -18 -18 -18 -18 -18
Height
5776 5772 5769 5765 5761 5756 5752 5749 5745 5742 5737 5733 5728 5724 5720 5716 5712 5708 5704 5700 5695 5690 5686 5681 5677 5671 5665 5659 5653 5647 5643 5637 5632 5626 5621 5617 5613 5610 5607 5604 5600 5597
5775 5772 5768 5764 5760 5756 5752 5749 5745 5741 5737 5733 5729 5724 5720 5716 5712 5708 5704 5700 5696 5692 5687 5683 5678 5673 5667 5661 5655 5650 5645 5640 5635 5629 5624 5619 5615 5612 5610 5607 5603 5600
5775 5772 5768 5764 5760 5756 5752 5749 5745 5741 5737 5733 5729 5724 5720 5716 5713 5709 5705 5701 5697 5693 5689 5684 5680 5675 5670 5663 5657 5652 5648 5643 5637 5632 5627 5622 5617 5614 5612 5609 5607 5605
5775 5772 5768 5764 5760 5756 5752 5749 5745 5741 5738 5734 5729 5725 5721 5717 5713 5709 5706 5702 5698 5694 5690 5686 5682 5677 5672 5666 5660 5655 5650 5646 5640 5635 5630 5625 5620 5617 5614 5612 5610 5609
5774 5771 5768 5764 5760 5756 5752 5749 5745 5741 5738 5734 5730 5725 5721 5717 5714 5710 5706 5703 5699 5695 5692 5688 5684 5680 5675 5669 5664 5658 5653 5649 5644 5639 5635 5630 5625 5621 5618 5615 5614 5612
5774 5771 5767 5764 5760 5756 5753 5749 5745 5742 5738 5734 5730 5726 5722 5718 5714 5711 5707 5704 5700 5697 5693 5690 5686 5682 5677 5672 5667 5662 5657 5653 5647 5643 5639 5634 5630 5626 5622 5620 5618 5616
5774 5771 5767 5764 5760 5756 5753 5749 5745 5742 5738 5734 5731 5726 5723 5719 5715 5712 5708 5705 5702 5698 5695 5691 5688 5684 5680 5675 5671 5666 5661 5657 5652 5647 5643 5638 5634 5631 5627 5624 5622 5621
5773 5770 5767 5763 5760 5756 5753 5749 5746 5742 5738 5735 5731 5727 5723 5720 5716 5713 5709 5706 5703 5699 5696 5693 5690 5687 5683 5678 5674 5670 5665 5661 5656 5652 5648 5643 5639 5635 5631 5628 5626 5625
5773 5770 5767 5763 5760 5756 5753 5749 5746 5742 5739 5735 5732 5728 5724 5721 5717 5714 5710 5707 5704 5701 5698 5695 5692 5689 5685 5681 5677 5673 5669 5665 5661 5657 5653 5649 5645 5641 5636 5633 5630 5629
5773 5770 5766 5763 5760 5756 5753 5749 5746 5743 5739 5736 5732 5729 5725 5722 5718 5715 5711 5708 5705 5702 5699 5697 5694 5691 5687 5684 5680 5676 5673 5669 5665 5661 5658 5654 5650 5646 5642 5638 5635 5633
5772 5769 5766 5763 5760 5756 5753 5750 5746 5743 5740 5736 5733 5729 5726 5723 5719 5716 5712 5709 5706 5703 5701 5698 5695 5693 5690 5686 5683 5679 5676 5673 5669 5666 5662 5658 5655 5651 5648 5644 5641 5638
5772 5769 5766 5763 5760 5756 5753 5750 5747 5743 5740 5737 5734 5730 5727 5723 5720 5716 5713 5710 5707 5705 5702 5699 5697 5694 5691 5688 5685 5682 5679 5676 5672 5669 5666 5662 5659 5656 5652 5649 5646 5643
5771 5768 5766 5763 5759 5756 5753 5750 5747 5744 5740 5737 5734 5731 5727 5724 5721 5717 5714 5711 5708 5706 5703 5700 5698 5696 5693 5690 5687 5685 5682 5679 5675 5672 5669 5666 5663 5659 5656 5653 5650 5648
5770 5768 5766 5763 5759 5756 5753 5750 5747 5744 5741 5738 5735 5732 5728 5725 5722 5718 5715 5712 5709 5707 5704 5702 5699 5697 5694 5692 5689 5687 5684 5681 5678 5675 5672 5669 5666 5663 5660 5657 5654 5652
5770 5767 5765 5762 5759 5756 5753 5750 5747 5744 5741 5738 5735 5732 5729 5726 5723 5720 5717 5714 5711 5708 5705 5703 5700 5698 5696 5693 5691 5689 5686 5683 5681 5677 5674 5672 5669 5666 5663 5660 5658 5655
5769 5767 5764 5762 5759 5756 5753 5751 5748 5745 5742 5739 5736 5733 5730 5726 5723 5721 5717 5714 5712 5709 5706 5704 5701 5699 5697 5694 5692 5690 5688 5685 5683 5680 5677 5675 5672 5669 5667 5664 5662 5660
5768 5766 5764 5761 5758 5756 5753 5751 5748 5745 5742 5739 5736 5733 5730 5727 5724 5721 5718 5715 5712 5710 5707 5705 5702 5700 5698 5695 5693 5691 5689 5687 5685 5682 5680 5677 5675 5672 5669 5667 5665 5663
5767 5765 5763 5760 5758 5755 5753 5751 5748 5745 5743 5740 5737 5734 5731 5728 5724 5721 5718 5716 5713 5711 5708 5706 5703 5701 5699 5697 5695 5693 5691 5689 5687 5684 5682 5679 5677 5674 5672 5670 5667 5665
5767 5764 5762 5759 5757 5755 5753 5750 5748 5745 5743 5740 5737 5734 5731 5728 5725 5722 5719 5716 5714 5711 5709 5707 5704 5702 5700 5698 5696 5694 5692 5690 5688 5686 5684 5681 5679 5677 5674 5672 5669 5667
5766 5764 5761 5759 5756 5754 5752 5750 5748 5745 5743 5740 5737 5735 5732 5728 5725 5723 5720 5717 5714 5712 5710 5707 5705 5703 5701 5698 5696 5694 5692 5691 5689 5687 5685 5683 5681 5679 5676 5674 5671 5669
5765 5763 5761 5758 5756 5754 5752 5750 5747 5745 5742 5740 5737 5735 5732 5729 5726 5723 5720 5717 5715 5712 5710 5708 5706 5703 5701 5699 5697 5695 5693 5691 5689 5688 5686 5684 5682 5680 5678 5676 5673 5671
5764 5762 5760 5758 5756 5754 5752 5750 5747 5745 5742 5740 5737 5735 5732 5729 5726 5723 5721 5718 5715 5713 5711 5708 5706 5704 5701 5699 5697 5695 5693 5692 5690 5688 5686 5685 5683 5681 5679 5677 5675 5672
5763 5761 5759 5757 5755 5753 5752 5749 5747 5745 5742 5740 5737 5735 5732 5729 5726 5724 5721 5719 5716 5713 5711 5708 5706 5704 5702 5700 5698 5695 5694 5692 5690 5688 5686 5685 5683 5681 5679 5677 5676 5673
5762 5760 5758 5756 5755 5753 5751 5749 5747 5745 5743 5740 5737 5735 5732 5729 5726 5724 5721 5718 5716 5713 5711 5709 5707 5704 5702 5700 5698 5696 5694 5692 5690 5688 5686 5685 5683 5681 5680 5678 5676 5674
5761 5759 5757 5756 5754 5752 5751 5749 5747 5745 5742 5740 5738 5735 5732 5730 5727 5724 5721 5718 5715 5713 5711 5709 5707 5704 5702 5700 5698 5695 5693 5691 5690 5688 5686 5685 5683 5681 5679 5678 5676 5674
5760 5758 5757 5755 5753 5752 5750 5748 5746 5744 5742 5740 5738 5736 5733 5730 5727 5724 5721 5718 5715 5713 5711 5709 5706 5704 5702 5700 5697 5695 5693 5691 5689 5687 5686 5684 5682 5681 5679 5678 5676 5674
Wind_Speed
31 33 35 36 37 38 38 36 34 36 38 39 40 41 40 39 38 38 37 37 38 39 40 42 46 50 51 49 47 47 48 47 44 41 36 30 27 28 31 36 34 29
31 33 35 36 36 37 37 35 34 36 38 39 40 40 40 38 38 38 37 37 37 38 39 41 45 49 51 49 48 47 47 48 46 43 39 31 25 25 29 34 32 28
31 33 35 36 36 37 36 34 33 35 37 39 40 40 39 37 37 37 36 36 36 37 38 40 44 48 50 50 48 47 47 48 48 46 44 38 30 28 30 31 30 28
31 32 34 35 36 36 35 33 32 34 37 39 40 40 39 37 37 36 35 35 35 36 37 39 42 46 49 49 48 48 48 49 50 48 47 44 38 35 35 34 33 32
31 32 34 35 36 36 34 32 32 34 37 39 39 39 38 37 36 36 35 34 34 35 36 37 41 44 47 48 48 48 49 49 50 50 48 47 43 39 38 38 38 37
30 32 34 35 35 35 34 32 32 33 36 38 38 39 38 36 35 35 34 33 34 34 34 36 39 42 44 46 47 47 48 49 51 51 50 49 46 42 39 38 39 38
30 32 33 35 35 34 33 31 31 33 35 37 38 38 38 36 34 34 33 32 33 33 33 34 36 39 42 44 45 45 46 48 49 51 51 50 48 45 42 40 38 37
30 31 33 34 35 33 32 30 30 32 35 37 38 38 37 36 34 33 33 32 32 32 32 33 34 37 39 41 42 43 44 45 47 48 49 50 49 47 45 43 41 38
29 31 32 34 34 33 31 30 30 32 34 36 37 38 37 35 33 32 32 31 30 31 31 31 32 34 37 39 40 40 41 43 44 46 47 48 48 47 46 44 42 40
28 30 32 33 33 32 30 29 30 31 33 35 36 37 36 34 33 32 31 31 30 30 30 30 31 32 34 37 38 38 39 40 41 43 45 46 46 46 46 45 42 40
28 29 31 32 32 31 28 28 29 30 32 34 35 36 35 34 32 31 31 30 29 28 28 29 29 30 32 34 36 36 37 37 38 39 41 43 44 45 45 45 44 42
27 29 30 31 31 30 27 28 29 30 31 33 34 35 35 33 32 30 30 30 29 28 27 28 28 28 30 32 33 34 35 35 36 36 37 39 41 42 43 44 44 43
26 28 30 31 30 28 26 27 29 30 31 32 33 34 34 33 31 30 29 28 28 27 27 27 26 27 28 30 31 32 33 34 34 34 35 36 38 39 40 41 42 42
26 28 29 30 29 26 25 27 28 29 30 31 32 33 33 32 31 29 28 27 27 27 26 26 26 25 26 28 29 30 31 32 33 33 33 33 34 36 37 38 39 40
25 27 28 29 28 25 24 26 28 29 30 30 31 32 32 32 30 29 27 27 26 26 25 25 25 25 25 25 27 28 28 29 30 31 31 31 32 32 34 35 36 36
25 27 28 28 26 24 23 26 27 28 29 30 30 31 31 31 30 28 27 27 26 25 25 24 24 24 24 24 24 25 26 27 28 29 29 30 30 30 30 31 32 32
24 26 27 27 25 22 22 25 27 28 29 29 30 30 30 30 29 28 28 27 26 25 24 24 23 23 23 22 22 23 24 25 26 27 27 28 28 28 28 28 28 29
24 25 26 27 24 22 22 24 26 27 28 29 29 30 30 29 29 28 27 26 26 25 24 24 23 22 22 22 21 21 22 23 24 24 25 26 26 26 27 27 27 27
23 25 26 26 23 21 22 24 25 27 27 28 29 29 29 28 28 28 27 26 25 25 24 24 23 22 21 21 21 20 20 21 22 22 23 23 24 25 25 25 26 26
22 24 25 25 22 20 21 23 25 26 27 27 28 28 28 28 28 27 27 25 24 24 24 23 23 22 21 21 20 19 19 19 20 21 21 21 22 23 23 24 24 24
22 23 25 23 20 19 21 23 24 26 26 27 28 28 28 28 27 27 27 26 24 23 23 23 23 22 22 21 20 20 19 18 18 18 19 20 20 20 21 22 22 23
21 23 24 22 19 18 20 22 23 25 26 26 27 28 28 28 28 27 27 26 24 22 22 22 23 23 22 21 21 20 19 18 17 17 18 18 19 19 19 20 21 21
21 22 23 21 18 17 19 21 22 23 25 26 27 28 29 29 28 28 27 26 25 23 22 22 22 22 22 22 22 21 20 19 18 17 17 17 18 18 18 18 19 19
21 22 23 20 17 17 18 20 21 22 23 25 26 27 29 30 30 29 28 27 26 25 23 22 21 21 22 22 22 22 21 20 19 17 17 16 17 17 17 17 18 18
21 22 23 20 17 16 18 19 20 22 23 24 25 26 28 29 30 30 29 29 28 27 25 23 22 22 22 23 23 22 21 20 19 18 17 16 16 17 17 17 17 17
20 22 22 20 17 16 17 18 20 21 22 23 24 25 27 29 30 31 30 29 28 28 26 25 23 23 23 25 25 23 21 20 20 19 18 17 16 17 17 17 17 17
Wind_Direction
353 354 356 357 358 357 358 359 360 -0 359 359 359 0 1 1 2 3 3 5 10 15 18 18 16 16 15 14 15 18 19 19 20 20 17 15 17 21 23 23 25 32
353 354 355 357 358 358 358 359 0 0 -0 360 0 1 1 1 3 4 4 7 12 16 19 19 17 18 18 16 17 20 21 21 22 24 25 22 21 24 26 29 35 42
353 354 355 356 358 358 359 0 1 1 1 1 1 2 2 2 3 5 5 8 13 17 19 19 18 18 19 19 19 21 22 23 23 25 28 29 32 35 35 40 49 53
353 353 354 356 358 359 359 1 2 1 1 2 2 2 3 3 4 5 6 9 13 17 20 20 19 19 21 21 21 22 23 25 26 27 29 31 37 44 45 47 54 57
353 353 354 356 358 359 360 1 2 2 2 3 3 3 3 4 4 5 7 10 13 17 20 21 19 20 22 24 24 24 25 27 29 29 30 33 38 45 47 45 48 53
352 354 354 356 359 360 1 2 3 2 3 3 3 3 5 5 5 6 8 10 13 17 20 21 20 20 23 25 26 26 26 27 29 30 31 33 37 42 44 43 43 45
353 354 354 356 359 1 2 3 3 3 3 3 3 4 5 5 5 6 8 11 13 17 20 22 21 20 23 26 28 28 27 27 29 30 31 31 34 38 42 43 41 40
352 354 355 356 359 1 3 4 4 3 3 3 4 5 6 6 6 7 8 11 14 17 19 22 22 21 23 26 28 28 28 27 28 30 31 32 32 35 39 42 43 41
352 354 355 357 359 2 3 5 5 4 3 3 4 5 7 7 6 7 8 10 14 16 18 21 22 22 23 26 27 28 29 29 29 30 32 33 33 34 36 39 42 43
352 355 356 357 0 2 4 6 5 4 4 3 4 5 7 7 7 7 8 10 13 16 18 19 21 22 23 25 27 27 29 30 30 30 31 32 34 34 35 36 38 41
352 355 357 358 1 3 5 6 5 4 4 4 4 4 6 8 8 8 8 10 12 15 17 18 20 22 23 25 26 26 27 29 30 31 31 32 33 35 36 36 37 38
352 355 358 359 1 3 5 6 5 5 4 4 4 4 5 8 9 8 8 10 11 13 16 17 18 20 22 24 25 25 25 27 30 31 31 32 32 33 35 36 37 38
351 356 358 -0 2 3 5 6 6 5 5 4 3 3 5 8 9 9 9 9 11 12 15 16 16 18 21 23 24 24 24 26 28 30 31 32 32 32 33 35 36 37
352 356 359 1 2 3 4 5 6 6 5 4 3 3 4 7 9 10 9 9 10 12 13 14 15 16 19 22 23 23 23 24 26 29 30 30 31 32 32 32 33 34
352 356 359 1 2 3 3 5 6 6 5 4 3 3 4 6 9 11 11 10 10 11 12 12 13 13 16 20 21 21 22 22 24 26 29 29 30 31 32 32 31 31
353 357 358 -0 2 2 3 5 6 5 4 3 3 3 3 5 8 10 12 11 10 10 10 10 11 12 13 17 18 19 20 21 22 24 26 28 29 30 32 33 32 31
354 356 358 359 1 2 3 5 6 5 4 3 2 3 3 4 6 9 12 12 11 10 9 8 9 10 10 12 15 17 17 18 19 21 23 25 27 28 29 31 32 32
354 356 356 358 360 2 3 5 5 4 3 2 3 3 2 3 6 8 10 12 12 10 8 7 8 8 8 8 10 13 15 15 16 17 20 22 24 25 26 27 29 31
355 356 355 357 359 1 3 4 4 4 3 3 4 3 2 3 5 7 9 11 12 11 9 6 6 6 6 6 6 8 11 13 13 13 15 18 20 21 23 24 25 27
355 354 354 356 359 1 2 2 3 3 3 4 5 4 3 4 5 6 7 8 10 11 10 7 5 5 5 4 3 4 6 9 10 9 10 13 16 18 19 21 22 23
354 354 354 356 358 360 -0 1 2 2 2 4 6 5 4 5 5 5 6 6 7 9 9 8 6 4 3 3 2 1 1 3 5 6 6 7 10 13 15 17 18 19
353 352 353 355 358 358 359 0 1 1 2 5 6 6 6 5 5 4 4 4 4 5 6 7 7 4 2 2 1 0 359 358 359 0 2 3 4 8 11 12 14 15
351 351 352 354 356 356 357 359 359 0 2 4 6 7 6 6 5 3 2 2 2 3 3 5 5 4 3 1 360 359 358 356 355 354 356 358 358 1 6 8 9 10
350 351 351 352 354 354 356 357 358 359 1 3 6 6 6 6 4 2 1 0 0 1 1 1 1 2 2 0 359 357 356 355 353 351 351 352 353 355 360 3 4 4
349 349 350 350 351 352 353 354 355 357 359 2 4 5 5 5 4 2 1 360 359 358 358 357 358 358 359 359 357 355 353 352 352 350 348 347 347 348 352 356 358 358
347 348 348 348 347 348 350 351 352 354 356 359 1 3 4 4 3 3 2 360 358 357 356 355 355 356 358 358 355 352 350 349 349 349 346 344 343 343 345 349 351 351